[[{"header":{"parameterUnit":"m.s-1","parameterCategory":1,"la1":30.2991,"la2":30.254,"lo1":-89.0895,"lo2":-89.0444,"dy":0.0017,"dx":0.0017,"nx":28,"ny":28,"refTime":"2023-07-25T03:00:00:Z","depth":0,"parameterNumber":2,"parameterNumberName":"U-component_of_WINDS"},"data":[0,0,0,0,0,0,0,0,0,0,0,0,0,0,0,0,0,0,0,0,0,0,0,0,0,0,0,0,0,0,0,0,0,0,0,0,0,0,0,0,0,0,0,0,0,0,0,0,0,0,0,0,0,0,0,0,0,0,-0.6835,-0.6833,0,-0.6685,-0.6683,-0.6681,-0.6624,-0.6624,-0.6625,-0.6625,-0.6469,-0.6465,-0.646,0,0,0,0,0,0,0,0,0,0,0,0,0,-0.707,-0.7066,-0.6835,-0.6833,-0.6831,-0.6685,-0.6683,-0.6681,-0.6624,-0.6624,-0.6625,-0.6625,-0.6471,-0.6465,-0.646,0,0,0,0,0,0,0,0,0,0,0,0,0,-0.6949,-0.7065,-0.6835,-0.6785,-0.6779,-0.6685,-0.6683,-0.668,-0.6624,-0.6624,-0.6625,-0.6625,-0.6473,-0.6466,-0.6459,-0.6404,0,0,-0.6438,-0.6435,0,0,0,0,0,0,0,0,-0.6956,-0.694,-0.6794,-0.6788,-0.6781,-0.6674,-0.6709,-0.6588,-0.6623,-0.6682,-0.6625,-0.6626,-0.6537,-0.6525,-0.6495,-0.6396,-0.639,-0.6438,-0.6434,-0.6431,-0.6429,0,0,0,0,0,0,0,-0.6964,-0.6946,-0.6775,-0.6792,-0.6784,-0.6769,-0.6753,-0.6685,-0.6608,-0.6677,-0.6673,-0.6656,-0.6533,-0.6502,-0.6491,-0.6388,-0.6438,-0.6432,-0.6428,-0.6425,-0.6237,-0.6236,0,0,0,0,0,0,-0.6981,-0.6954,-0.678,-0.6771,-0.6872,-0.6765,-0.6746,-0.6708,-0.6608,-0.6594,-0.6656,-0.6654,-0.6513,-0.6499,-0.6485,-0.6414,-0.6431,-0.6424,-0.642,-0.6237,-0.6236,-0.6235,0,0,0,0,0,0,-0.6986,-0.6966,-0.6786,-0.6861,-0.6837,-0.676,-0.6717,-0.6704,-0.6673,-0.6592,-0.6577,-0.6638,-0.6513,-0.6495,-0.6425,-0.6408,-0.6421,-0.6415,-0.6238,-0.6237,-0.6236,-0.6271,0,0,0,0,0,0,-0.6993,-0.6968,-0.6947,-0.6861,-0.6833,-0.6729,-0.6716,-0.6701,-0.6661,-0.6658,-0.6571,-0.6557,-0.6512,-0.6435,-0.6418,-0.6398,-0.641,-0.624,-0.6238,-0.6236,-0.6271,-0.6271,-0.6271,0,0,0,0,0,-0.7002,-0.6962,-0.6946,-0.6925,-0.6805,-0.6728,-0.6712,-0.6661,-0.666,-0.6638,-0.6586,-0.656,-0.6413,-0.6429,-0.6409,-0.6387,-0.624,-0.6238,-0.6236,-0.6271,-0.6271,-0.6271,0,0,0,0,0,0,-0.7047,-0.695,-0.6931,-0.6862,-0.6804,-0.6718,-0.6688,-0.6663,-0.6603,-0.6602,-0.654,-0.6521,-0.6456,-0.6414,-0.6434,-0.6328,-0.6325,-0.6319,-0.6358,-0.6357,-0.6357,-0.6368,-0.6404,0,0,0,0,0,-0.7049,-0.6996,-0.6913,-0.6861,-0.6832,-0.6766,-0.673,-0.6696,-0.6633,-0.6608,-0.6551,-0.649,-0.643,-0.6391,-0.6331,-0.6265,-0.6245,-0.624,-0.624,-0.6241,-0.6236,-0.6198,-0.6195,-0.6229,-0.6229,-0.6229,0,0,-0.7053,-0.6993,-0.6963,-0.6868,-0.6819,-0.6764,-0.6745,-0.6688,-0.6647,-0.6599,-0.6529,-0.6486,-0.6413,-0.6345,-0.6312,-0.6308,-0.6222,-0.6238,-0.6239,-0.6234,-0.6196,-0.6192,-0.619,-0.6227,-0.6228,-0.6228,0,0,-0.7031,-0.6981,-0.6931,-0.6883,-0.6809,-0.6765,-0.6753,-0.6672,-0.6641,-0.6571,-0.6534,-0.6484,-0.6381,-0.6331,-0.6293,-0.6254,-0.6228,-0.6236,-0.6236,-0.62,-0.6197,-0.6194,-0.618,-0.6176,-0.6232,-0.6232,-0.6232,0,-0.7044,-0.6961,-0.6909,-0.6854,-0.6814,-0.6769,-0.6718,-0.6674,-0.6584,-0.6557,-0.6554,-0.6425,-0.6373,-0.6293,-0.6284,-0.6254,-0.6238,-0.6245,-0.6202,-0.6198,-0.6195,-0.6181,-0.6176,-0.6233,-0.6233,-0.6233,-0.6233,0,-0.6981,-0.6924,-0.6893,-0.6809,-0.6765,-0.6712,-0.6652,-0.6614,-0.6584,-0.654,-0.6469,-0.6406,-0.6333,-0.6311,-0.6281,-0.6227,-0.6227,-0.6214,-0.6209,-0.6194,-0.618,-0.6174,-0.6235,-0.6235,-0.6234,-0.6234,0,0,-0.6982,-0.6871,-0.686,-0.6822,-0.6737,-0.6692,-0.6638,-0.6567,-0.6535,-0.6475,-0.6428,-0.6343,-0.6331,-0.6287,-0.6251,-0.6219,-0.6193,-0.621,-0.6207,-0.6209,-0.6129,-0.6139,-0.6134,-0.6175,-0.6174,-0.6173,-0.6135,0,-0.6949,-0.6851,-0.6803,-0.6725,-0.6672,-0.6629,-0.6582,-0.6525,-0.6483,-0.6431,-0.6385,-0.6326,-0.6314,-0.6287,-0.6254,-0.6203,-0.6176,-0.6205,-0.613,-0.6128,-0.6149,-0.6126,-0.6136,-0.6103,-0.6129,-0.6128,-0.6127,0,-0.6897,-0.6838,-0.6756,-0.6679,-0.6654,-0.6613,-0.6544,-0.6496,-0.643,-0.6402,-0.6354,-0.632,-0.6261,-0.6261,-0.6179,-0.62,-0.6166,-0.6137,-0.6134,-0.6125,-0.6127,-0.6116,-0.6091,-0.6087,-0.6118,-0.6119,-0.6119,0,-0.6906,-0.6806,-0.6744,-0.6712,-0.6621,-0.6593,-0.6553,-0.6489,-0.6449,-0.639,-0.6364,-0.6298,-0.6261,-0.6211,-0.6159,-0.6164,-0.6082,-0.6078,-0.6057,-0.6058,-0.6041,-0.6042,-0.601,-0.602,-0.602,-0.602,-0.602,0,-0.6874,-0.6825,-0.6747,-0.6709,-0.6653,-0.6598,-0.6544,-0.6501,-0.6445,-0.6397,-0.6356,-0.6312,-0.6247,-0.6195,-0.6154,-0.6092,-0.6076,-0.6051,-0.6041,-0.6055,-0.6058,-0.6032,-0.6032,-0.6019,-0.6019,-0.602,-0.602,0,-0.6874,-0.682,-0.675,-0.6669,-0.6648,-0.661,-0.6541,-0.6502,-0.6459,-0.6399,-0.6382,-0.6314,-0.625,-0.6194,-0.611,-0.6082,-0.6019,-0.6007,-0.6042,-0.6036,-0.6018,-0.602,-0.5967,-0.5957,-0.5975,-0.5975,-0.5975,0,-0.6857,-0.6818,-0.6735,-0.67,-0.6662,-0.6607,-0.6567,-0.6512,-0.6472,-0.6396,-0.6366,-0.63,-0.6244,-0.6145,-0.6087,-0.6023,-0.6008,-0.5994,-0.5998,-0.6013,-0.6007,-0.601,-0.6006,-0.5994,-0.5994,-0.5994,-0.5994,0,-0.6832,-0.6808,-0.6752,-0.6688,-0.6642,-0.6588,-0.6533,-0.6507,-0.6442,-0.6399,-0.6334,-0.6291,-0.6206,-0.6141,-0.607,-0.6029,-0.6,-0.5994,-0.5985,-0.5998,-0.602,-0.6008,-0.6042,-0.5995,-0.5995,-0.5995,-0.5995,-0.5995,-0.6822,-0.6787,-0.6722,-0.6662,-0.6615,-0.6565,-0.6525,-0.6477,-0.6423,-0.6349,-0.632,-0.6254,-0.6191,-0.6093,-0.6052,-0.5999,-0.5994,-0.5982,-0.5979,-0.5977,-0.5979,-0.603,-0.5986,-0.5986,-0.5986,-0.5986,-0.5986,0,-0.6795,-0.6752,-0.6698,-0.6623,-0.6575,-0.6554,-0.6493,-0.6454,-0.6397,-0.634,-0.6287,-0.6213,-0.615,-0.6088,-0.6021,-0.5991,-0.5977,-0.5976,-0.5977,-0.5968,-0.5987,-0.6001,-0.5989,-0.5989,-0.5989,-0.5989,-0.5989,-0.5989,-0.6776,-0.6714,-0.6682,-0.6597,-0.6553,-0.6489,-0.6456,-0.641,-0.6364,-0.6284,-0.6231,-0.6192,-0.6133,-0.6062,-0.6004,-0.5987,-0.5964,-0.5967,-0.5947,-0.5966,-0.5966,-0.5967,-0.598,-0.5962,-0.5962,-0.5931,-0.5931,-0.5931]},{"header":{"parameterUnit":"m.s-1","parameterCategory":1,"la1":30.2991,"la2":30.254,"lo1":-89.0895,"lo2":-89.0444,"dy":0.0017,"dx":0.0017,"nx":28,"ny":28,"refTime":"2023-07-25T03:00:00:Z","depth":0,"parameterNumber":3,"parameterNumberName":"V-component_of_WINDS"},"data":[0,0,0,0,0,0,0,0,0,0,0,0,0,0,0,0,0,0,0,0,0,0,0,0,0,0,0,0,0,0,0,0,0,0,0,0,0,0,0,0,0,0,0,0,0,0,0,0,0,0,0,0,0,0,0,0,0,0,1.9723,1.9723,0,1.9708,1.9708,1.9708,1.976,1.9762,1.9764,1.9765,1.9745,1.9743,1.9741,0,0,0,0,0,0,0,0,0,0,0,0,0,1.9791,1.9789,1.9723,1.9723,1.9723,1.9709,1.9708,1.9708,1.976,1.9762,1.9764,1.9766,1.9745,1.9743,1.9741,0,0,0,0,0,0,0,0,0,0,0,0,0,1.9767,1.9789,1.9723,1.9747,1.9749,1.9709,1.9708,1.9708,1.976,1.9762,1.9764,1.9767,1.9746,1.9743,1.974,1.9674,0,0,1.9731,1.973,0,0,0,0,0,0,0,0,1.9768,1.9764,1.9744,1.9745,1.9748,1.9739,1.9725,1.9697,1.9759,1.9755,1.9765,1.9768,1.9741,1.9738,1.973,1.9673,1.9673,1.9731,1.9729,1.9728,1.9727,0,0,0,0,0,0,0,1.977,1.9765,1.9717,1.9743,1.9746,1.9757,1.9756,1.972,1.9735,1.9756,1.976,1.9758,1.9742,1.9733,1.973,1.9672,1.9731,1.9728,1.9726,1.9725,1.9559,1.9556,0,0,0,0,0,0,1.9769,1.9766,1.9718,1.9717,1.9764,1.9754,1.9753,1.9739,1.9735,1.9737,1.9756,1.976,1.9737,1.9733,1.9729,1.9651,1.9728,1.9725,1.9723,1.9561,1.9558,1.9555,0,0,0,0,0,0,1.977,1.9764,1.9718,1.9743,1.9738,1.975,1.9734,1.9738,1.9729,1.9735,1.9738,1.9744,1.9739,1.9734,1.9688,1.9651,1.9724,1.9721,1.9564,1.956,1.9557,1.9493,0,0,0,0,0,0,1.9772,1.9764,1.9741,1.9742,1.9736,1.9678,1.9732,1.9736,1.9724,1.973,1.9725,1.9726,1.974,1.9692,1.9685,1.9648,1.9718,1.9568,1.9563,1.9558,1.9498,1.9487,1.9478,0,0,0,0,0,1.9774,1.9722,1.9739,1.9733,1.9707,1.9676,1.9672,1.9691,1.9721,1.9696,1.97,1.9726,1.9656,1.9687,1.9679,1.9641,1.957,1.9564,1.9558,1.9503,1.9489,1.9478,0,0,0,0,0,0,1.9715,1.9723,1.9742,1.9689,1.9682,1.9685,1.9654,1.9676,1.9659,1.9665,1.9687,1.9686,1.9635,1.9634,1.9667,1.9576,1.9618,1.961,1.9578,1.9566,1.9556,1.9556,1.9716,0,0,0,0,0,1.9696,1.9672,1.968,1.9632,1.9628,1.9641,1.9629,1.9644,1.9636,1.9633,1.9634,1.9624,1.9599,1.9583,1.9561,1.9499,1.9497,1.9469,1.9458,1.945,1.9442,1.9408,1.9394,1.9536,1.9536,1.9536,0,0,1.9656,1.9657,1.964,1.962,1.9616,1.9589,1.9638,1.9607,1.9586,1.9627,1.9584,1.9584,1.9575,1.952,1.9496,1.9517,1.9403,1.9442,1.9436,1.9433,1.94,1.9387,1.9375,1.9532,1.9533,1.9534,0,0,1.9569,1.9568,1.9528,1.9524,1.9517,1.9527,1.9517,1.9517,1.9519,1.9477,1.9506,1.9481,1.9439,1.9431,1.9421,1.933,1.9353,1.9322,1.9268,1.9234,1.9223,1.9213,1.9179,1.9166,1.9315,1.9315,1.9315,0,1.9519,1.9481,1.9504,1.9471,1.9461,1.9498,1.9457,1.945,1.9436,1.9427,1.9452,1.94,1.9396,1.9339,1.9317,1.9308,1.9296,1.9322,1.9223,1.9213,1.9204,1.9172,1.9159,1.9311,1.9312,1.9312,1.9312,0,1.9419,1.9392,1.936,1.9347,1.9333,1.9296,1.9312,1.9294,1.9311,1.9317,1.9272,1.9269,1.9247,1.9235,1.925,1.9179,1.9192,1.922,1.9262,1.9187,1.9156,1.9144,1.9306,1.9307,1.9308,1.9309,0,0,1.9293,1.9294,1.9282,1.9276,1.9272,1.925,1.9214,1.9194,1.9178,1.9167,1.9135,1.9099,1.9124,1.9113,1.9127,1.9098,1.9024,1.9129,1.9129,1.9107,1.8943,1.8922,1.8907,1.904,1.9037,1.9036,1.8944,0,1.9206,1.9146,1.9166,1.9103,1.9077,1.9113,1.9081,1.9074,1.9079,1.9056,1.9061,1.9034,1.907,1.9063,1.9036,1.9039,1.8991,1.9046,1.9008,1.9007,1.9008,1.8892,1.8869,1.8782,1.8932,1.893,1.8929,0,1.9096,1.9082,1.9018,1.9018,1.9007,1.8979,1.8961,1.894,1.8931,1.8937,1.8924,1.8945,1.8907,1.8951,1.8898,1.8935,1.8921,1.892,1.8917,1.8913,1.8962,1.8882,1.8755,1.8741,1.8911,1.8912,1.8914,0,1.9008,1.8974,1.893,1.8924,1.8923,1.8902,1.89,1.8895,1.8881,1.8865,1.8856,1.8835,1.8823,1.8806,1.882,1.8851,1.8764,1.881,1.8765,1.8765,1.8744,1.8744,1.861,1.8738,1.8738,1.8738,1.8738,0,1.8908,1.8866,1.8891,1.8864,1.8818,1.8841,1.8794,1.8796,1.8791,1.8763,1.8793,1.8766,1.8787,1.8761,1.8772,1.8725,1.872,1.8721,1.8724,1.8718,1.8717,1.8707,1.8713,1.8735,1.8735,1.8736,1.8737,0,1.8801,1.8816,1.8771,1.8774,1.8774,1.8739,1.8741,1.8715,1.8723,1.8688,1.8681,1.8691,1.8663,1.8675,1.8645,1.8652,1.8591,1.8603,1.8594,1.8596,1.8551,1.8554,1.8404,1.8385,1.8526,1.8525,1.8524,0,1.8735,1.8704,1.8705,1.8689,1.8686,1.8661,1.8647,1.8668,1.8652,1.8641,1.8615,1.859,1.857,1.8522,1.8526,1.8503,1.8513,1.8462,1.8509,1.8503,1.851,1.851,1.8507,1.8452,1.845,1.8449,1.8448,0,1.8616,1.8625,1.8605,1.8587,1.8571,1.8557,1.8546,1.8531,1.8552,1.8532,1.8504,1.8489,1.8459,1.8432,1.8411,1.8407,1.8429,1.8433,1.8421,1.8413,1.8408,1.8408,1.8566,1.8436,1.8437,1.8438,1.8439,1.8439,1.8526,1.85,1.8496,1.8472,1.8467,1.8456,1.8431,1.8436,1.8414,1.8391,1.8405,1.8371,1.8363,1.8338,1.8331,1.8303,1.8323,1.8306,1.8302,1.8297,1.829,1.8415,1.83,1.83,1.8301,1.8301,1.8301,0,1.8407,1.8406,1.8385,1.8369,1.835,1.8375,1.8364,1.8346,1.8317,1.8308,1.8289,1.8255,1.8229,1.8232,1.8207,1.8185,1.8194,1.8177,1.8178,1.8177,1.8275,1.8287,1.817,1.817,1.817,1.817,1.817,1.817,1.8342,1.8299,1.8307,1.826,1.826,1.8229,1.822,1.8209,1.8202,1.8164,1.8143,1.8146,1.8141,1.8116,1.8093,1.8094,1.8083,1.8061,1.8066,1.8157,1.817,1.8182,1.8193,1.8059,1.8059,1.797,1.7969,1.7969]}]]